CAPE
443 944 1103 1302 1613 1541 1715 1632 1465 1793 1837 1850 1625 1497 1388 2209 2248 1993 1885 1844 1630 1807 1926 1761 1641 1459 1436 1110 1273 1188 1256 1147 971 975 721 463 1037 1085 830 492 857 1182 1218
705 1136 1420 1808 1687 1826 1948 1706 1758 1970 1724 1482 1743 1682 2211 2095 2092 2082 2024 1958 1581 2012 1878 1639 1434 1401 1213 1467 1265 920 1283 1297 1295 1019 1141 1082 1086 1056 643 376 1141 1215 1255
669 1287 1631 1786 1950 1897 1728 1641 1798 2067 1939 1815 2180 2191 2263 2065 2035 2148 2084 1962 2002 1998 1631 1582 1575 1520 1325 1225 1008 760 1077 1308 900 832 250 513 1143 1136 1178 496 554 832 1154
1023 1447 1547 1566 1491 1518 1404 1303 1260 1336 1799 1924 1770 1994 2360 2172 2076 2102 2119 2117 2090 2082 1958 1602 1534 1340 1059 893 852 848 1125 1327 1185 547 217 525 1118 1219 1207 1231 1005 657 1065
923 1065 1250 1315 1748 1724 1677 1870 1547 1273 1182 1714 1944 1885 1870 1893 2116 2089 2038 1977 1858 1992 1600 1562 1504 1389 1044 850 1035 883 780 787 326 237 291 446 796 1245 746 405 995 845 440
518 1102 1302 1364 1662 1619 1791 1770 1643 1548 1905 1448 1815 1807 2042 1976 2175 2196 2151 2038 2000 1942 1649 1332 1299 1370 1439 1343 759 877 952 414 230 129 187 412 876 1256 988 240 1004 1002 449
689 1157 1097 1556 1581 1685 1599 1627 1579 1074 1376 1524 1515 1635 1896 1856 2048 2031 2042 2026 2065 1960 1775 1477 1313 1184 1007 1101 714 796 796 534 164 46 44 241 515 1015 1035 374 693 462 286
706 1151 1348 1250 1584 1691 1525 1545 1485 1337 1885 1683 1656 1866 1761 1988 1921 1931 2007 2092 2161 1921 1853 1373 1077 683 680 1276 1198 910 1112 885 635 262 32 212 510 592 806 1124 847 407 355
942 1098 1278 1344 1483 1461 1542 1481 1476 1501 1666 1564 1588 1741 1970 1945 1905 1959 2120 2237 2116 2055 1913 1387 779 649 851 919 1237 1620 483 190 65 0 135 434 568 506 521 790 1091 1067 574
811 904 1023 1112 1342 1205 1510 1533 1523 1649 1610 1545 1582 1754 1703 1985 1834 2003 2182 2209 1962 1888 1674 1137 750 758 750 609 979 1562 352 42 6 128 253 561 1241 1544 916 165 1054 838 854
500 662 877 664 1188 1093 1306 1471 1506 1562 1432 1139 1594 1474 1524 1494 1785 1766 1988 1998 1840 1733 1417 1066 685 532 466 740 777 1121 355 188 402 657 768 648 461 1211 1328 274 152 572 677
401 610 567 541 794 976 1336 1187 1145 1217 810 771 992 1209 1078 1315 1356 1628 1851 1925 1833 1595 1065 758 644 717 911 604 372 1365 246 280 370 724 908 444 614 500 291 73 107 91 332
511 639 709 673 689 773 831 731 748 630 585 684 774 908 1016 1029 1288 1101 1417 1484 1369 1439 1345 1381 1200 1138 1227 1427 1250 951 601 477 447 804 785 539 926 888 310 144 313 347 278
495 650 692 645 558 360 555 585 759 696 738 774 740 756 805 810 716 654 686 806 916 1165 779 1046 767 977 739 538 791 1048 636 82 91 110 263 301 802 1154 514 342 361 533 317
436 575 507 484 272 100 256 472 537 771 735 720 829 635 421 391 401 684 879 973 746 629 461 748 781 629 396 129 135 261 117 0 0 47 287 422 155 670 760 514 549 472 472
364 440 455 267 45 0 29 232 275 402 615 590 678 602 582 863 437 703 857 872 780 1181 885 409 868 1036 451 220 150 117 99 96 36 18 38 136 135 191 342 341 426 466 516
394 297 229 191 20 0 9 220 176 538 485 718 918 846 774 758 804 853 789 849 1024 711 427 620 1255 654 730 486 299 209 251 302 217 130 75 102 202 273 263 363 507 503 541
462 235 344 139 0 0 41 81 65 321 414 588 819 766 663 638 564 1220 1013 1005 940 709 890 1131 341 507 872 717 437 300 407 482 375 309 227 233 318 501 414 694 871 840 891
298 460 370 335 330 210 281 17 0 190 211 424 959 909 1085 1210 1113 1005 1077 837 1032 1064 867 656 827 848 561 485 336 409 466 486 399 659 673 655 536 573 628 659 1051 1362 1498
348 320 396 416 445 357 420 44 0 99 102 584 807 931 1031 1076 890 925 1200 853 1030 743 707 565 700 1161 908 522 539 363 503 468 393 651 659 667 801 774 904 953 987 1375 1633
91 174 479 314 531 452 473 222 134 79 476 622 699 893 1120 1089 875 801 1201 702 1003 885 576 1093 1134 1002 671 651 620 422 215 216 457 478 657 579 708 842 1066 1146 1227 1295 1575
67 213 260 297 495 484 776 590 633 672 711 600 576 978 972 1080 660 616 842 569 973 829 958 1031 1178 855 663 235 938 760 210 156 246 286 434 477 603 641 1066 1152 1323 1564 1772
112 290 287 374 298 336 864 697 558 587 816 805 707 892 1040 1043 946 884 947 836 1113 951 870 1008 1320 1316 969 981 827 932 502 274 263 65 89 303 327 574 814 973 1166 1487 1606
125 323 374 373 344 414 604 671 440 590 661 679 624 797 992 1023 1129 1244 1043 906 1233 1116 905 1140 1577 1360 1304 1246 1184 1025 798 1185 476 326 366 338 390 854 856 827 1153 1382 1784
167 281 379 402 392 662 1068 622 360 509 536 736 858 983 989 942 1098 994 1153 1254 974 789 785 1210 1441 1175 1421 1596 1523 1367 987 645 823 1016 815 947 747 851 1176 1355 1291 1627 2048
214 305 322 305 336 637 872 883 182 290 445 643 754 857 923 977 1102 974 1125 1043 917 744 571 1423 1333 1071 1072 1580 1558 1323 885 674 101 917 1072 1134 1242 1144 1141 1239 1006 1824 2378
CIN
-20 -3 -7 -3 -0 -0 -0 -0 -5 -0 -0 -0 -2 -3 -5 -0 -0 -3 -2 -2 -2 -1 -0 -0 -0 -0 -0 -0 -0 -1 -0 -0 -0 -0 -2 -8 -0 -0 -0 -22 -0 -0 -0
-27 -3 -1 -0 -0 -0 -0 -0 -1 -0 -1 -8 -1 -4 -0 -0 -0 -0 -0 -0 -3 -0 -0 -0 -0 -0 -0 -0 -0 -0 -0 -0 -0 -0 -0 -0 -0 -0 -6 -26 -0 -0 -0
-46 -1 -0 -0 -0 -0 -0 -0 -0 -0 -0 -0 -0 -0 -0 -0 -0 -0 -0 -0 -0 -0 -0 -0 -0 -0 -0 -0 -0 -0 -0 -1 -11 -8 -56 -24 -0 -0 -0 -8 -5 -0 -0
-19 -1 -0 -1 -0 -0 -0 -0 -1 -2 -0 -0 -3 -0 -0 -0 -0 -0 -0 -0 -0 -0 -0 -0 -0 -0 -4 -5 -12 -7 -0 -0 -0 -27 -56 -13 -0 -0 -0 -0 -0 -0 -0
-18 -8 -2 -5 -0 -0 -0 -0 -0 -3 -1 -0 -0 -0 -3 -1 -0 -0 -0 -0 -3 -0 -6 -2 -2 -3 -12 -7 -10 -14 -17 -10 -40 -59 -49 -42 -3 -0 -0 -18 -0 -3 -27
-53 -7 -1 -1 -0 -2 -0 -0 -0 -0 -0 -0 -0 -0 -0 -0 -0 -0 -0 -0 -0 -4 -8 -19 -16 -10 -5 -2 -15 -21 -27 -39 -77 -95 -92 -50 -1 -0 -0 -50 -0 -0 -24
-40 -1 -3 -0 -0 -0 -0 -0 -0 -12 -0 -0 -0 -0 -0 -1 -0 -0 -0 -0 -0 -10 -15 -25 -22 -13 -11 -11 -32 -27 -31 -49 -101 -136 -71 -94 -48 -0 -0 -45 -11 -18 -56
-63 -2 -0 -1 -0 -0 -0 -0 -0 -0 -0 -0 -0 -0 -0 -0 -0 -1 -0 -1 -3 -19 -19 -34 -33 -21 -19 -17 -15 -28 -25 -47 -62 -101 -81 -114 -51 -30 -4 -0 -3 -39 -60
-39 -22 -0 -0 -0 -0 -0 -0 -0 -0 -0 -0 -1 -0 -0 -0 -0 -0 -1 -0 -3 -2 -12 -34 -43 -40 -29 -29 -19 -15 -56 -95 -154 -0 -133 -75 -46 -45 -47 -7 -0 -2 -38
-37 -42 -19 -10 -1 -3 -1 -0 -0 -0 -0 -0 -0 -0 -0 -0 -1 -3 -5 -3 -12 -20 -33 -49 -52 -45 -31 -33 -25 -18 -69 -150 -6 -146 -117 -81 -10 -0 -17 -149 -3 -23 -23
-48 -54 -36 -53 -6 -9 -5 -0 -0 -0 -4 -8 -0 -0 -2 -7 -10 -18 -17 -20 -34 -41 -53 -63 -68 -59 -43 -30 -21 -13 -70 -120 -107 -99 -88 -95 -119 -23 -9 -171 -203 -104 -79
-60 -48 -56 -60 -32 -16 -1 -14 -17 -9 -30 -23 -14 -7 -19 -24 -33 -31 -20 -24 -30 -40 -52 -60 -56 -52 -35 -43 -46 -32 -88 -110 -128 -110 -97 -155 -130 -165 -210 -273 -257 -257 -179
-69 -53 -43 -38 -37 -26 -29 -43 -41 -48 -53 -38 -27 -25 -33 -40 -33 -55 -50 -46 -59 -47 -48 -51 -58 -65 -63 -53 -29 -49 -74 -95 -143 -122 -128 -168 -119 -131 -229 -270 -233 -218 -230
-61 -48 -56 -57 -64 -69 -48 -39 -41 -36 -36 -37 -41 -47 -47 -51 -61 -66 -70 -92 -76 -77 -80 -77 -92 -76 -62 -50 -75 -54 -63 -190 -260 -268 -248 -253 -172 -118 -219 -256 -253 -211 -255
-63 -62 -76 -73 -109 -134 -92 -79 -51 -40 -36 -33 -39 -48 -62 -59 -70 -58 -57 -58 -75 -89 -88 -71 -68 -61 -69 -121 -116 -95 -140 -0 -0 -309 -270 -245 -309 -220 -211 -252 -243 -262 -256
-90 -81 -79 -71 -41 -0 -176 -102 -87 -80 -46 -35 -42 -38 -52 -43 -61 -55 -56 -55 -49 -53 -57 -66 -54 -44 -46 -89 -124 -151 -145 -166 -251 -345 -370 -326 -335 -341 -304 -304 -295 -282 -265
-83 -111 -97 -95 -166 -0 -185 -137 -133 -82 -56 -29 -31 -25 -30 -40 -40 -40 -39 -40 -41 -56 -62 -59 -44 -48 -36 -46 -68 -106 -123 -148 -184 -251 -320 -334 -317 -306 -328 -295 -288 -291 -275
-111 -112 -96 -112 -0 -0 -143 -148 -172 -88 -45 -32 -25 -30 -23 -40 -34 -27 -23 -30 -41 -55 -55 -40 -74 -44 -30 -42 -64 -84 -108 -125 -140 -203 -266 -292 -301 -257 -277 -226 -217 -232 -224
-120 -98 -84 -83 -74 -92 -126 -175 -0 -79 -68 -52 -28 -25 -20 -22 -28 -29 -32 -42 -50 -35 -46 -55 -59 -53 -39 -44 -59 -75 -95 -107 -127 -137 -175 -207 -247 -249 -245 -218 -188 -159 -144
-88 -80 -66 -72 -79 -80 -83 -103 -0 -97 -102 -45 -30 -22 -21 -27 -29 -34 -33 -36 -38 -42 -50 -62 -44 -45 -37 -46 -41 -72 -107 -130 -148 -120 -149 -185 -203 -206 -195 -195 -208 -173 -139
-93 -83 -43 -65 -73 -79 -64 -80 -87 -112 -55 -46 -37 -23 -22 -32 -29 -35 -34 -40 -35 -44 -54 -47 -42 -32 -35 -61 -46 -81 -126 -160 -132 -163 -142 -164 -164 -167 -168 -164 -177 -186 -145
-93 -73 -56 -27 -34 -52 -34 -52 -44 -44 -55 -52 -46 -33 -31 -30 -37 -40 -38 -43 -31 -37 -37 -33 -37 -46 -57 -128 -30 -64 -95 -123 -161 -193 -189 -161 -165 -174 -136 -162 -154 -137 -114
-82 -64 -60 -38 -29 -32 -23 -37 -60 -49 -40 -36 -32 -34 -29 -29 -27 -23 -29 -35 -35 -40 -35 -36 -34 -36 -35 -55 -78 -54 -67 -88 -147 -210 -236 -206 -218 -200 -144 -156 -153 -135 -144
-86 -71 -65 -52 -35 -30 -37 -29 -42 -29 -22 -37 -27 -23 -27 -25 -22 -17 -26 -35 -31 -43 -41 -30 -38 -47 -53 -43 -58 -80 -115 -67 -77 -96 -140 -144 -189 -136 -157 -172 -137 -138 -133
-92 -86 -78 -65 -54 -35 -26 -34 -46 -44 -67 -57 -37 -18 -18 -24 -15 -19 -18 -24 -31 -45 -44 -30 -28 -46 -50 -57 -53 -56 -73 -118 -124 -57 -70 -82 -139 -142 -136 -124 -131 -109 -91
-92 -105 -112 -78 -75 -42 -31 -39 -85 -73 -72 -54 -44 -24 -21 -19 -18 -20 -17 -28 -36 -36 -41 -29 -43 -44 -51 -51 -59 -74 -76 -91 -170 -74 -64 -92 -81 -99 -113 -126 -158 -97 -53
Wind_Speed
30 30 30 29 28 27 26 24 24 24 26 27 29 31 33 34 35 35 33 31 16 7 22 10 16 21 21 29 25 24 28 30 34 35 35 35 34 33 33 32 32 32 31
32 31 30 30 28 28 26 23 22 23 25 26 27 28 33 33 35 35 35 35 33 26 13 6 13 12 12 36 36 35 36 35 34 33 34 34 33 33 33 32 31 32 31
32 32 31 29 27 26 24 22 20 21 21 25 28 29 31 33 34 33 35 34 34 31 19 34 36 36 35 36 36 35 35 33 34 33 33 29 30 31 32 32 31 30 31
33 32 29 27 26 26 24 22 21 22 22 21 25 28 31 30 32 32 33 33 34 34 34 35 35 34 33 33 33 33 34 34 33 24 22 26 27 31 30 29 31 32 30
32 31 29 27 27 26 25 23 22 23 24 24 27 29 29 29 30 32 32 30 32 33 33 33 33 32 31 32 29 30 27 26 31 30 27 25 24 28 29 28 30 30 30
32 31 28 28 27 26 26 26 24 24 24 26 29 29 28 28 28 32 29 31 21 31 32 32 32 30 28 30 32 33 32 31 30 29 29 26 24 27 30 29 27 30 29
32 30 29 28 28 27 28 29 29 29 29 29 29 30 26 29 29 31 30 30 19 26 30 31 32 29 26 24 28 30 32 30 29 29 29 28 26 27 28 28 27 26 24
31 29 29 29 29 29 29 30 30 29 28 29 29 29 30 29 31 31 28 28 24 27 27 27 28 30 26 13 32 31 30 29 29 28 28 28 27 26 25 25 25 24 24
29 29 29 29 29 29 30 31 30 29 26 27 28 25 23 30 31 31 27 27 22 25 25 25 25 25 27 30 30 30 29 29 29 28 28 26 26 26 24 23 22 26 25
28 28 29 29 29 30 30 30 30 30 29 28 28 0 22 29 29 24 20 21 21 17 19 19 21 20 22 28 28 30 29 28 26 26 27 26 25 25 24 23 23 23 24
28 28 29 29 29 29 29 29 29 30 29 29 28 29 29 30 28 23 23 24 25 21 24 24 23 22 21 22 24 24 27 24 25 25 25 26 25 25 25 23 23 22 22
29 29 29 30 29 29 29 29 29 29 28 27 27 28 29 31 30 29 29 29 27 26 25 24 22 21 20 19 18 21 26 24 24 25 25 26 26 25 24 23 23 21 20
29 29 29 29 29 29 29 29 29 29 29 27 28 29 28 29 28 29 28 26 24 21 16 18 18 18 17 20 20 22 25 23 24 24 26 25 25 24 23 22 21 20 20
28 28 27 28 30 29 28 27 26 26 28 27 28 28 29 30 30 29 28 26 22 19 19 22 17 15 16 16 22 26 27 25 25 24 25 24 23 22 21 21 20 19 18
27 27 26 26 27 27 28 20 23 26 27 27 28 27 30 30 29 27 25 22 21 21 20 20 18 13 13 19 24 31 27 25 24 24 24 23 22 21 20 20 19 18 18
26 27 27 30 30 29 28 25 25 25 25 27 27 29 27 27 26 25 24 24 21 19 16 16 11 11 11 15 27 29 28 26 24 24 23 22 21 20 19 19 18 18 17
27 26 27 29 28 28 26 27 27 25 24 26 25 27 26 26 26 25 24 25 24 22 18 16 13 13 13 15 21 26 26 26 24 23 22 21 20 20 19 18 18 17 15
25 26 28 28 30 29 26 28 27 24 25 25 22 27 26 27 25 22 26 25 23 24 20 17 15 14 16 20 21 22 24 25 24 22 21 20 20 18 17 17 16 15 14
24 26 26 28 29 28 25 27 26 24 22 24 24 27 27 25 24 22 25 23 23 21 20 17 16 15 16 20 21 23 23 23 22 20 20 20 19 18 16 15 14 14 13
23 25 26 27 28 28 24 23 25 26 24 24 25 27 26 26 25 23 23 22 20 19 20 17 14 15 17 19 19 23 23 22 21 20 19 19 19 18 16 14 13 13 12
20 24 27 26 28 29 26 26 25 26 25 25 25 25 26 27 26 24 23 23 21 20 19 17 15 13 16 17 18 21 20 20 20 22 19 19 18 17 16 14 14 13 11
20 21 25 28 27 28 26 27 25 26 24 24 25 25 25 26 26 26 24 25 22 21 21 18 14 15 17 16 20 21 20 19 18 18 20 20 19 17 16 15 14 12 11
18 20 24 27 26 28 27 27 24 24 21 22 26 24 25 26 26 26 25 25 22 20 23 20 17 15 14 15 16 19 22 23 17 16 18 16 17 16 17 16 14 13 11
18 21 22 25 25 26 28 26 25 24 25 25 25 25 25 27 25 25 26 24 20 21 22 17 20 17 14 10 15 13 19 20 21 20 16 17 15 15 15 15 13 12 12
13 21 21 23 24 23 27 27 26 25 25 25 25 25 25 26 26 26 26 25 20 19 17 16 19 17 13 11 11 16 12 11 15 19 19 17 16 17 16 14 14 11 12
10 13 17 23 26 26 27 27 28 26 26 25 25 25 25 26 25 26 26 25 24 23 21 18 20 19 16 13 14 12 12 16 21 17 12 15 14 15 17 14 11 11 16
Wind_Direction
136 134 123 112 102 94 88 81 77 74 77 80 81 89 92 89 97 109 120 126 58 124 139 60 55 60 61 74 68 65 70 73 83 90 93 94 87 85 91 91 99 91 81
126 125 121 113 104 101 90 79 74 75 79 82 83 83 99 91 99 102 109 109 120 137 150 103 59 61 64 113 101 112 100 88 84 82 89 91 91 94 90 96 101 90 84
122 124 122 109 100 95 90 81 74 74 71 83 88 93 90 97 97 91 102 108 110 123 69 95 100 105 114 111 100 108 100 85 91 88 89 120 113 103 94 99 101 102 93
118 124 111 101 100 98 94 86 81 83 83 76 86 96 114 93 96 89 94 88 98 101 106 99 112 116 118 112 117 115 103 95 93 120 140 129 120 103 109 108 99 89 98
113 118 110 103 104 101 98 88 82 87 89 91 100 112 139 92 90 96 95 84 95 101 112 108 117 125 122 118 127 130 134 130 98 97 122 129 129 110 103 111 99 87 91
117 120 108 109 107 109 102 103 89 91 90 95 121 110 146 96 90 105 133 99 154 120 113 121 123 130 131 124 117 97 86 93 93 107 107 123 126 115 93 104 110 94 98
117 114 113 115 107 109 110 121 121 121 122 124 125 124 151 143 105 119 128 103 156 143 126 128 126 132 137 137 124 113 99 95 91 103 100 114 120 111 104 103 110 114 118
113 114 116 116 112 110 111 119 128 137 139 134 117 113 135 133 119 128 137 140 153 139 138 142 142 131 134 154 91 96 99 97 106 105 103 110 117 119 122 123 121 123 122
112 111 118 121 117 112 113 115 121 126 144 144 137 95 91 120 137 132 147 145 158 147 142 148 150 146 128 116 112 109 106 106 106 111 115 124 126 127 130 133 134 119 116
112 111 114 122 124 120 117 112 118 120 126 129 115 22 96 111 153 164 167 163 159 166 159 161 160 160 152 123 118 104 110 115 128 130 127 130 133 134 133 133 129 123 120
118 122 122 117 122 127 119 119 113 120 130 126 135 149 152 154 159 168 162 158 150 156 145 149 155 156 154 149 136 133 125 132 135 136 136 134 135 135 131 131 130 127 125
121 127 124 125 122 128 131 121 120 127 135 140 143 150 153 148 148 151 147 143 142 144 142 145 151 155 159 162 163 150 140 138 140 138 137 134 133 133 133 130 129 130 131
122 128 126 123 124 128 126 127 126 134 133 145 144 146 152 155 155 151 148 152 153 161 178 169 169 168 170 165 163 156 147 143 140 139 135 135 134 133 132 133 135 134 132
125 123 121 124 140 129 125 135 152 150 145 149 146 147 144 145 147 145 134 143 157 174 172 157 166 175 171 168 161 156 147 143 137 138 138 138 138 139 139 139 138 137 134
121 125 120 121 130 133 132 143 172 154 157 153 149 148 138 139 144 149 157 160 163 166 166 165 172 178 175 161 151 136 147 145 143 140 139 139 141 143 144 143 141 137 133
117 125 123 156 145 145 161 171 169 166 170 154 151 145 148 155 149 151 164 162 164 180 194 181 190 193 188 172 145 142 145 148 149 145 143 142 144 147 147 145 140 136 132
125 125 133 144 156 152 140 158 156 167 181 160 160 152 156 152 150 160 159 160 158 170 182 183 192 193 191 181 162 148 146 154 151 150 150 151 148 148 149 145 141 137 134
121 128 135 147 139 137 157 154 164 180 169 168 171 129 150 154 152 171 154 159 167 167 178 184 187 194 190 177 169 164 155 152 155 156 158 158 155 156 155 151 146 141 135
124 129 134 148 148 147 144 163 157 183 190 178 172 140 153 166 166 168 163 169 170 180 184 187 188 190 192 180 176 169 167 163 163 167 163 160 160 161 161 159 155 149 141
124 129 126 139 153 155 165 175 174 172 180 178 165 161 171 170 171 175 171 180 190 185 184 191 198 197 196 189 192 175 177 177 181 181 174 169 165 164 166 164 161 153 147
122 128 138 134 143 152 165 163 169 164 171 168 169 169 176 174 175 176 180 179 185 188 191 199 201 205 192 189 188 183 183 187 187 187 191 185 177 175 168 170 163 156 149
126 129 136 148 137 151 161 162 165 160 170 170 169 170 177 186 183 178 183 181 186 188 190 198 207 201 190 188 177 177 179 185 199 199 188 189 186 184 175 165 168 157 148
129 132 140 145 143 152 167 153 175 172 193 183 162 173 171 176 181 182 189 184 194 201 190 196 202 207 211 205 204 191 168 164 199 207 195 196 198 188 180 167 165 156 144
135 137 138 143 144 149 173 161 157 154 149 167 164 164 163 163 180 184 188 193 210 204 197 217 200 207 219 247 217 224 190 182 179 183 205 197 210 211 200 187 176 167 138
137 142 141 144 146 141 167 181 166 151 161 161 162 150 150 166 172 180 185 187 218 218 227 228 213 215 235 244 242 213 226 243 215 192 194 204 211 206 199 202 181 172 132
148 136 138 147 153 153 174 169 166 163 154 157 153 150 158 179 176 175 177 186 198 200 215 229 218 220 230 241 223 238 240 224 197 203 235 215 237 230 217 239 246 196 90